QPF
0.00 0.00 0.00 0.00 0.00 0.00 0.00 0.00 0.00 0.00 0.00 0.00 0.00 0.00 0.00 0.00 0.00 0.00 0.00 0.00 0.00 0.00 0.00 0.00 0.00 0.00 0.00 0.00 0.00 0.00 0.00 0.00 0.00 0.00 0.00 0.00 0.00 0.00 0.00 0.00 0.00 0.00 0.00
0.00 0.00 0.00 0.00 0.00 0.00 0.00 0.00 0.00 0.00 0.00 0.00 0.00 0.00 0.00 0.00 0.00 0.00 0.00 0.00 0.00 0.00 0.00 0.00 0.00 0.00 0.00 0.00 0.00 0.00 0.00 0.00 0.00 0.00 0.00 0.00 0.00 0.00 0.00 0.00 0.00 0.00 0.00
0.00 0.00 0.00 0.00 0.00 0.00 0.00 0.00 0.00 0.00 0.00 0.00 0.00 0.00 0.00 0.00 0.00 0.00 0.00 0.00 0.00 0.00 0.00 0.00 0.00 0.00 0.00 0.00 0.00 0.00 0.00 0.00 0.00 0.00 0.00 0.00 0.00 0.00 0.00 0.00 0.00 0.00 0.00
0.00 0.00 0.00 0.00 0.00 0.00 0.00 0.00 0.00 0.00 0.00 0.00 0.00 0.00 0.00 0.00 0.00 0.00 0.00 0.00 0.00 0.00 0.00 0.00 0.00 0.00 0.00 0.00 0.00 0.00 0.00 0.00 0.00 0.00 0.00 0.00 0.00 0.00 0.00 0.00 0.00 0.00 0.00
0.00 0.00 0.00 0.00 0.00 0.00 0.00 0.00 0.00 0.00 0.00 0.00 0.00 0.00 0.00 0.00 0.00 0.00 0.00 0.00 0.00 0.00 0.00 0.00 0.00 0.00 0.00 0.00 0.00 0.00 0.00 0.00 0.00 0.00 0.00 0.00 0.00 0.00 0.00 0.00 0.00 0.00 0.00
0.00 0.00 0.00 0.00 0.00 0.00 0.00 0.00 0.00 0.00 0.00 0.00 0.00 0.00 0.00 0.00 0.00 0.00 0.00 0.00 0.00 0.00 0.00 0.00 0.00 0.00 0.00 0.00 0.00 0.00 0.00 0.00 0.00 0.00 0.00 0.00 0.00 0.00 0.00 0.00 0.00 0.00 0.00
0.00 0.00 0.00 0.00 0.00 0.00 0.00 0.00 0.00 0.00 0.00 0.00 0.00 0.00 0.00 0.00 0.00 0.00 0.00 0.00 0.00 0.00 0.00 0.00 0.00 0.00 0.00 0.00 0.00 0.00 0.00 0.00 0.00 0.00 0.00 0.00 0.00 0.00 0.00 0.00 0.00 0.00 0.00
0.00 0.00 0.00 0.00 0.00 0.00 0.00 0.00 0.00 0.00 0.00 0.00 0.00 0.00 0.00 0.00 0.00 0.00 0.00 0.00 0.00 0.00 0.00 0.00 0.00 0.00 0.00 0.00 0.00 0.00 0.00 0.00 0.00 0.00 0.00 0.00 0.00 0.00 0.00 0.01 0.00 0.00 0.00
0.00 0.00 0.00 0.00 0.00 0.00 0.00 0.00 0.00 0.00 0.00 0.00 0.00 0.00 0.00 0.00 0.00 0.00 0.00 0.00 0.00 0.00 0.00 0.00 0.00 0.00 0.00 0.00 0.00 0.00 0.00 0.00 0.00 0.00 0.00 0.00 0.00 0.00 0.00 0.00 0.00 0.00 0.00
0.00 0.00 0.00 0.00 0.00 0.00 0.00 0.00 0.00 0.00 0.00 0.00 0.00 0.00 0.00 0.00 0.00 0.00 0.00 0.00 0.00 0.00 0.00 0.00 0.00 0.00 0.00 0.00 0.00 0.00 0.00 0.00 0.00 0.00 0.00 0.00 0.00 0.00 0.00 0.00 0.00 0.00 0.00
0.00 0.00 0.00 0.00 0.00 0.00 0.00 0.00 0.00 0.00 0.00 0.00 0.00 0.00 0.00 0.00 0.00 0.00 0.00 0.00 0.00 0.00 0.00 0.00 0.00 0.00 0.00 0.00 0.00 0.00 0.00 0.00 0.00 0.00 0.00 0.00 0.00 0.00 0.00 0.00 0.00 0.00 0.00
0.00 0.00 0.00 0.00 0.00 0.00 0.00 0.00 0.00 0.00 0.00 0.00 0.00 0.00 0.00 0.00 0.00 0.00 0.00 0.00 0.00 0.00 0.00 0.00 0.00 0.00 0.00 0.00 0.00 0.00 0.00 0.00 0.00 0.00 0.00 0.00 0.00 0.00 0.00 0.00 0.00 0.00 0.00
0.00 0.00 0.00 0.00 0.00 0.00 0.00 0.00 0.00 0.00 0.00 0.00 0.00 0.00 0.00 0.00 0.00 0.00 0.00 0.00 0.00 0.00 0.00 0.00 0.00 0.00 0.00 0.00 0.00 0.00 0.00 0.00 0.00 0.00 0.00 0.00 0.00 0.00 0.00 0.00 0.00 0.00 0.00
0.00 0.00 0.00 0.00 0.00 0.00 0.00 0.00 0.00 0.00 0.00 0.00 0.00 0.00 0.00 0.00 0.00 0.00 0.00 0.00 0.00 0.00 0.00 0.00 0.00 0.00 0.00 0.00 0.00 0.00 0.00 0.00 0.00 0.00 0.00 0.00 0.00 0.00 0.00 0.00 0.00 0.00 0.00
0.00 0.00 0.00 0.00 0.00 0.00 0.00 0.00 0.00 0.00 0.00 0.00 0.00 0.00 0.00 0.00 0.00 0.00 0.00 0.00 0.00 0.00 0.00 0.00 0.00 0.00 0.00 0.00 0.00 0.00 0.00 0.00 0.00 0.00 0.00 0.00 0.00 0.00 0.00 0.00 0.00 0.00 0.00
0.00 0.00 0.00 0.00 0.00 0.00 0.00 0.00 0.00 0.00 0.00 0.00 0.00 0.00 0.00 0.00 0.00 0.00 0.00 0.00 0.00 0.00 0.00 0.00 0.00 0.00 0.00 0.00 0.00 0.00 0.00 0.00 0.00 0.00 0.00 0.00 0.00 0.00 0.00 0.00 0.00 0.00 0.00
0.00 0.00 0.00 0.00 0.00 0.00 0.00 0.00 0.00 0.00 0.00 0.00 0.00 0.00 0.00 0.00 0.00 0.00 0.00 0.00 0.00 0.00 0.00 0.00 0.00 0.00 0.00 0.00 0.00 0.00 0.00 0.00 0.00 0.00 0.00 0.00 0.00 0.00 0.00 0.00 0.00 0.00 0.00
0.00 0.00 0.00 0.00 0.00 0.00 0.00 0.00 0.00 0.00 0.00 0.00 0.00 0.00 0.00 0.00 0.00 0.00 0.00 0.00 0.00 0.00 0.00 0.00 0.00 0.00 0.00 0.00 0.00 0.00 0.00 0.00 0.00 0.00 0.00 0.00 0.00 0.00 0.00 0.00 0.00 0.00 0.00
0.00 0.00 0.00 0.00 0.00 0.00 0.00 0.00 0.00 0.00 0.00 0.00 0.00 0.00 0.00 0.00 0.00 0.00 0.00 0.00 0.00 0.00 0.00 0.00 0.00 0.00 0.00 0.00 0.00 0.00 0.00 0.00 0.00 0.00 0.00 0.00 0.00 0.00 0.00 0.00 0.00 0.00 0.00
0.00 0.00 0.00 0.00 0.00 0.00 0.00 0.00 0.00 0.00 0.00 0.00 0.00 0.00 0.00 0.00 0.00 0.00 0.00 0.00 0.00 0.00 0.00 0.00 0.00 0.00 0.00 0.00 0.00 0.00 0.00 0.00 0.00 0.00 0.00 0.00 0.00 0.00 0.00 0.00 0.00 0.00 0.00
0.00 0.00 0.00 0.00 0.00 0.00 0.00 0.00 0.00 0.00 0.00 0.00 0.00 0.00 0.00 0.00 0.00 0.00 0.00 0.00 0.00 0.00 0.00 0.00 0.00 0.00 0.00 0.00 0.00 0.00 0.00 0.00 0.00 0.00 0.00 0.00 0.00 0.00 0.00 0.00 0.00 0.00 0.00
0.00 0.00 0.00 0.00 0.00 0.00 0.00 0.00 0.00 0.00 0.00 0.00 0.00 0.00 0.00 0.00 0.00 0.00 0.00 0.00 0.00 0.00 0.00 0.00 0.00 0.00 0.00 0.00 0.00 0.00 0.00 0.00 0.00 0.00 0.00 0.00 0.00 0.00 0.00 0.00 0.00 0.00 0.00
0.00 0.00 0.00 0.00 0.00 0.00 0.00 0.00 0.00 0.00 0.00 0.00 0.00 0.00 0.00 0.00 0.00 0.00 0.00 0.00 0.00 0.00 0.00 0.00 0.00 0.00 0.00 0.00 0.00 0.00 0.00 0.00 0.00 0.00 0.00 0.00 0.00 0.00 0.00 0.00 0.00 0.00 0.00
0.00 0.00 0.00 0.00 0.00 0.00 0.00 0.00 0.00 0.00 0.00 0.00 0.00 0.00 0.00 0.00 0.00 0.00 0.00 0.00 0.00 0.00 0.00 0.00 0.00 0.00 0.00 0.00 0.00 0.00 0.00 0.00 0.00 0.00 0.00 0.00 0.00 0.00 0.00 0.00 0.00 0.00 0.00
0.00 0.00 0.00 0.00 0.00 0.00 0.00 0.00 0.00 0.00 0.00 0.00 0.00 0.00 0.00 0.00 0.00 0.00 0.00 0.00 0.00 0.00 0.00 0.00 0.00 0.00 0.00 0.00 0.00 0.00 0.00 0.00 0.00 0.00 0.00 0.00 0.00 0.00 0.00 0.00 0.00 0.00 0.00
0.00 0.00 0.00 0.00 0.00 0.00 0.00 0.00 0.00 0.00 0.00 0.00 0.00 0.00 0.00 0.00 0.00 0.00 0.00 0.00 0.00 0.00 0.00 0.00 0.00 0.00 0.00 0.00 0.00 0.00 0.00 0.00 0.00 0.00 0.00 0.00 0.00 0.00 0.00 0.00 0.00 0.00 0.00
MSLP
1021.28 1021.57 1021.82 1021.86 1021.82 1021.68 1021.71 1021.72 1021.68 1021.50 1021.17 1021.18 1021.25 1021.18 1021.09 1021.18 1021.11 1020.95 1020.68 1020.47 1020.50 1020.42 1020.36 1020.31 1020.45 1020.49 1020.46 1020.32 1020.21 1020.33 1020.53 1020.47 1020.34 1019.19 1018.23 1017.25 1016.86 1016.33 1015.70 1015.18 1014.71 1014.36 1013.86
1020.93 1021.30 1021.66 1021.69 1021.74 1021.61 1021.58 1021.56 1021.42 1021.43 1021.11 1021.23 1021.37 1021.34 1021.39 1021.38 1021.29 1021.15 1021.01 1020.82 1020.79 1020.85 1020.72 1020.66 1020.52 1020.36 1020.44 1020.52 1020.53 1020.51 1020.29 1020.05 1020.17 1019.70 1018.63 1017.76 1017.00 1016.28 1015.88 1015.43 1014.81 1014.10 1013.78
1020.55 1021.01 1021.43 1021.59 1021.65 1021.59 1021.47 1021.33 1021.23 1021.37 1021.26 1021.29 1021.38 1021.41 1021.47 1021.44 1021.26 1021.24 1021.12 1021.01 1020.87 1020.83 1020.72 1020.46 1020.32 1020.39 1020.49 1020.45 1020.33 1020.32 1020.08 1019.65 1019.55 1019.45 1018.80 1017.71 1016.94 1016.27 1015.82 1015.28 1014.80 1014.29 1013.69
1020.24 1020.77 1021.28 1021.43 1021.45 1021.38 1021.31 1021.18 1021.30 1021.24 1021.35 1021.28 1021.34 1021.38 1021.35 1021.37 1021.31 1021.21 1021.14 1021.08 1020.94 1020.74 1020.45 1020.29 1020.17 1020.11 1020.05 1020.05 1019.91 1019.76 1019.60 1019.37 1018.96 1018.72 1018.21 1017.56 1016.97 1016.09 1015.83 1015.57 1014.90 1014.27 1013.73
1020.01 1020.59 1020.94 1020.98 1021.16 1021.22 1021.16 1021.07 1021.08 1021.13 1021.31 1021.32 1021.32 1021.43 1021.36 1021.33 1021.26 1021.27 1021.29 1021.21 1021.01 1020.70 1020.42 1020.17 1019.90 1019.73 1019.62 1019.52 1019.40 1019.09 1019.13 1019.05 1018.60 1018.33 1018.11 1017.58 1016.98 1016.42 1016.10 1015.41 1015.02 1014.32 1013.64
1019.71 1020.28 1020.49 1020.81 1020.89 1021.06 1021.05 1021.12 1021.05 1021.16 1021.25 1021.21 1021.24 1021.39 1021.48 1021.40 1021.18 1021.14 1021.09 1020.98 1020.77 1020.60 1020.40 1019.88 1019.54 1019.44 1019.18 1018.93 1018.64 1018.47 1018.37 1018.46 1018.22 1018.02 1017.70 1017.43 1016.86 1016.15 1015.54 1015.16 1014.83 1014.29 1013.38
1019.47 1019.95 1020.21 1020.46 1020.66 1020.93 1020.93 1021.06 1021.06 1021.10 1021.21 1021.28 1021.18 1021.24 1021.25 1021.09 1020.99 1020.91 1020.84 1020.71 1020.52 1020.33 1020.15 1019.91 1019.42 1018.83 1018.80 1018.57 1018.27 1017.95 1017.75 1017.51 1017.31 1017.18 1017.02 1016.70 1016.24 1015.64 1015.35 1014.81 1014.49 1013.96 1013.24
1019.29 1019.68 1019.95 1020.30 1020.58 1020.81 1020.87 1021.06 1021.02 1021.03 1021.22 1021.26 1021.15 1021.00 1021.03 1020.79 1020.66 1020.59 1020.30 1020.24 1020.08 1019.84 1019.72 1019.59 1019.31 1018.98 1018.70 1018.41 1018.21 1017.93 1017.44 1017.13 1016.82 1016.56 1016.35 1016.08 1015.62 1015.26 1014.86 1014.52 1014.22 1013.65 1013.02
1019.18 1019.49 1019.72 1020.07 1020.46 1020.76 1021.03 1021.04 1020.89 1021.00 1021.10 1021.06 1020.93 1020.83 1020.81 1020.24 1020.11 1019.90 1019.92 1019.87 1019.72 1019.46 1019.17 1019.10 1019.05 1018.83 1018.60 1018.29 1018.03 1017.96 1017.68 1017.23 1016.54 1016.16 1016.00 1015.65 1015.30 1014.89 1014.47 1014.20 1013.94 1013.61 1012.89
1018.97 1019.29 1019.45 1019.89 1020.22 1020.74 1020.74 1020.74 1020.68 1020.70 1020.77 1020.71 1020.56 1020.36 1020.20 1019.90 1019.37 1019.26 1019.35 1019.60 1019.69 1019.16 1018.78 1018.77 1018.79 1018.58 1018.23 1017.87 1017.83 1017.79 1017.65 1017.22 1016.83 1016.40 1015.98 1015.45 1015.03 1014.77 1014.20 1014.10 1013.91 1013.42 1012.94
1018.62 1018.90 1019.41 1019.71 1020.07 1020.16 1020.37 1020.49 1020.43 1020.45 1020.51 1020.60 1020.41 1019.83 1019.77 1019.54 1019.09 1018.79 1018.79 1019.03 1018.95 1019.17 1019.13 1018.91 1018.44 1018.17 1017.79 1017.52 1017.36 1017.64 1017.22 1016.91 1016.85 1016.60 1016.08 1015.36 1014.88 1014.59 1014.22 1013.84 1013.56 1013.27 1012.83
1018.43 1018.92 1019.36 1019.70 1019.92 1020.02 1020.28 1020.17 1020.19 1020.42 1020.48 1020.23 1020.15 1019.74 1019.31 1018.97 1018.85 1018.46 1018.36 1018.74 1019.07 1019.18 1019.05 1018.56 1018.23 1017.86 1017.61 1017.37 1017.21 1016.84 1016.87 1016.96 1016.95 1016.51 1015.94 1015.36 1014.93 1014.51 1014.07 1013.61 1013.12 1012.75 1012.40
1018.57 1019.17 1019.44 1019.53 1019.68 1019.83 1020.13 1020.14 1020.26 1020.20 1020.15 1019.89 1019.81 1019.71 1019.53 1019.14 1018.91 1018.64 1018.57 1018.68 1018.71 1018.75 1018.65 1018.39 1018.07 1017.73 1017.58 1017.27 1016.97 1017.00 1017.22 1017.16 1016.86 1016.15 1015.68 1015.23 1014.81 1014.38 1013.92 1013.36 1012.75 1012.28 1011.76
1018.74 1019.24 1019.48 1019.65 1019.72 1019.71 1019.79 1019.81 1019.97 1019.73 1019.55 1019.35 1019.32 1019.45 1019.44 1019.29 1019.11 1018.90 1018.90 1018.92 1018.80 1018.66 1018.58 1018.41 1018.10 1017.87 1017.61 1017.47 1017.21 1017.27 1017.30 1017.01 1016.39 1015.90 1015.49 1015.02 1014.62 1014.16 1013.70 1013.24 1012.67 1012.03 1011.53
1018.67 1019.13 1019.35 1019.57 1019.66 1019.61 1019.40 1019.36 1019.31 1018.73 1018.82 1018.69 1018.53 1018.69 1018.75 1018.92 1018.94 1018.98 1018.89 1018.76 1018.83 1018.86 1018.86 1018.61 1018.51 1018.46 1018.22 1017.97 1017.80 1017.61 1017.14 1016.62 1016.13 1015.78 1015.35 1014.93 1014.49 1013.99 1013.49 1012.96 1012.39 1011.78 1011.29
1018.73 1019.06 1019.14 1019.34 1019.46 1019.44 1019.41 1018.99 1018.33 1018.60 1017.84 1017.78 1017.89 1017.96 1018.35 1018.56 1018.78 1018.86 1018.95 1018.84 1018.75 1018.83 1019.11 1019.25 1019.11 1018.94 1018.68 1018.39 1018.07 1017.48 1016.82 1016.31 1016.04 1015.70 1015.26 1014.84 1014.39 1013.88 1013.33 1012.69 1012.16 1011.65 1011.10
1018.74 1018.95 1019.03 1019.08 1019.16 1019.27 1019.18 1019.01 1018.95 1018.91 1018.22 1017.98 1018.03 1018.42 1018.53 1018.61 1018.94 1018.98 1018.90 1019.04 1019.14 1019.13 1019.45 1019.51 1019.44 1019.21 1018.90 1018.43 1017.86 1017.29 1016.73 1016.34 1016.02 1015.66 1015.26 1014.79 1014.30 1013.74 1013.22 1012.59 1011.99 1011.45 1010.79
1018.41 1018.46 1018.77 1018.82 1018.96 1018.82 1018.68 1018.59 1018.42 1018.65 1018.67 1018.66 1018.61 1018.82 1018.84 1019.06 1019.18 1019.26 1019.38 1019.37 1019.66 1019.53 1019.84 1019.86 1019.75 1019.42 1018.82 1018.09 1017.56 1017.10 1016.72 1016.41 1016.03 1015.65 1015.14 1014.59 1014.05 1013.59 1012.98 1012.31 1011.70 1011.08 1010.44
1018.28 1018.40 1018.31 1018.40 1018.37 1018.46 1018.44 1018.15 1018.29 1018.58 1018.99 1019.24 1019.24 1019.41 1019.44 1019.59 1019.72 1019.78 1019.83 1020.09 1020.26 1020.16 1020.15 1020.07 1019.82 1019.28 1018.57 1017.92 1017.56 1017.22 1016.97 1016.55 1016.15 1015.57 1015.01 1014.48 1013.93 1013.49 1012.82 1012.22 1011.58 1010.80 1010.36
1018.21 1018.12 1018.24 1018.41 1018.30 1018.52 1018.46 1018.50 1018.83 1019.28 1019.67 1019.87 1019.96 1020.22 1020.20 1020.25 1020.53 1020.66 1020.50 1020.47 1020.43 1020.34 1020.26 1020.17 1019.76 1019.29 1018.70 1018.31 1017.90 1017.51 1017.09 1016.60 1016.01 1015.48 1014.98 1014.37 1013.83 1013.34 1012.67 1011.99 1011.30 1010.69 1010.11
1018.13 1018.21 1018.19 1018.20 1018.50 1018.48 1018.76 1019.03 1019.26 1019.71 1020.08 1020.37 1020.67 1020.72 1020.69 1020.86 1021.12 1021.14 1020.98 1020.74 1020.55 1020.49 1020.44 1020.25 1019.86 1019.40 1018.92 1018.49 1018.06 1017.68 1017.21 1016.59 1015.98 1015.58 1015.02 1014.43 1013.79 1013.10 1012.40 1011.82 1011.10 1010.41 1009.91
1018.03 1018.18 1018.13 1018.05 1018.43 1018.75 1019.21 1019.38 1019.60 1020.06 1020.42 1020.81 1021.19 1021.27 1021.17 1021.30 1021.37 1021.34 1021.09 1020.79 1020.66 1020.55 1020.51 1020.34 1019.97 1019.41 1019.02 1018.66 1018.27 1017.81 1017.41 1016.75 1016.03 1015.66 1015.13 1014.49 1013.85 1013.09 1012.30 1011.56 1010.82 1010.20 1009.64
1017.96 1018.08 1017.81 1017.83 1018.61 1019.28 1019.65 1019.84 1020.11 1020.40 1020.81 1021.17 1021.41 1021.66 1021.69 1021.73 1021.67 1021.53 1021.25 1020.93 1020.76 1020.76 1020.68 1020.50 1020.29 1019.62 1019.17 1018.88 1018.50 1018.13 1017.74 1017.00 1016.46 1015.90 1015.22 1014.38 1013.65 1012.89 1012.14 1011.48 1010.70 1010.06 1009.47
1017.75 1017.67 1018.18 1018.58 1019.21 1019.72 1020.11 1020.43 1020.66 1020.85 1021.17 1021.53 1021.80 1022.00 1022.06 1021.96 1021.82 1021.67 1021.44 1021.32 1021.23 1021.14 1020.96 1020.79 1020.45 1019.88 1019.47 1019.08 1018.65 1018.23 1017.80 1017.07 1016.43 1015.65 1014.99 1014.21 1013.35 1012.47 1011.70 1010.94 1010.32 1009.71 1009.11
1017.87 1018.27 1018.58 1019.19 1019.69 1020.19 1020.57 1020.92 1021.14 1021.38 1021.57 1021.90 1022.20 1022.29 1022.30 1022.26 1022.26 1022.12 1021.96 1021.75 1021.68 1021.53 1021.28 1020.96 1020.54 1019.96 1019.66 1019.28 1018.81 1018.29 1017.47 1016.74 1016.03 1015.26 1014.41 1013.67 1012.80 1011.98 1011.30 1010.69 1009.92 1009.29 1008.85
1018.38 1018.80 1019.33 1019.81 1020.28 1020.67 1021.01 1021.31 1021.64 1021.90 1022.17 1022.46 1022.60 1022.66 1022.70 1022.74 1022.75 1022.65 1022.47 1022.24 1022.18 1021.90 1021.56 1021.20 1020.76 1020.09 1019.74 1019.39 1018.92 1018.26 1017.54 1016.63 1015.72 1014.90 1014.07 1013.08 1012.44 1011.66 1011.03 1010.45 1009.75 1009.15 1008.80
Thickness
5594 5587 5580 5574 5569 5565 5560 5556 5552 5549 5547 5544 5540 5536 5533 5530 5528 5526 5524 5523 5520 5517 5514 5511 5505 5500 5495 5491 5486 5478 5471 5464 5458 5459 5460 5461 5457 5454 5450 5448 5445 5442 5441
5591 5584 5576 5571 5565 5561 5557 5554 5550 5547 5545 5541 5538 5533 5529 5526 5524 5522 5519 5519 5516 5510 5507 5502 5498 5495 5488 5480 5472 5465 5459 5453 5446 5441 5441 5439 5438 5437 5433 5431 5430 5429 5430
5590 5582 5573 5566 5560 5556 5553 5552 5549 5545 5542 5537 5534 5531 5527 5524 5521 5518 5515 5512 5510 5505 5500 5497 5492 5485 5477 5469 5463 5456 5449 5444 5435 5427 5424 5423 5421 5421 5421 5421 5421 5421 5419
5588 5579 5569 5562 5556 5552 5550 5549 5544 5542 5538 5534 5531 5528 5525 5521 5518 5515 5511 5507 5503 5499 5495 5490 5483 5475 5469 5461 5454 5448 5441 5432 5426 5417 5413 5410 5408 5412 5411 5410 5410 5410 5409
5585 5575 5566 5560 5553 5549 5546 5545 5541 5539 5534 5531 5528 5524 5521 5518 5515 5509 5505 5500 5496 5493 5488 5483 5476 5470 5464 5455 5447 5439 5430 5419 5413 5406 5401 5398 5399 5401 5401 5401 5399 5399 5399
5581 5571 5564 5556 5551 5544 5541 5538 5535 5532 5529 5527 5524 5520 5515 5513 5511 5506 5501 5496 5492 5486 5480 5477 5472 5465 5459 5450 5441 5430 5419 5406 5400 5395 5394 5391 5393 5394 5395 5393 5388 5391 5395
5576 5567 5560 5554 5548 5540 5537 5533 5530 5528 5525 5522 5520 5517 5513 5510 5507 5503 5499 5492 5485 5480 5474 5469 5465 5461 5452 5443 5431 5422 5414 5406 5401 5396 5393 5390 5391 5391 5388 5387 5384 5383 5385
5571 5564 5557 5550 5543 5536 5533 5528 5526 5524 5520 5517 5515 5513 5509 5507 5504 5500 5496 5489 5484 5477 5471 5463 5456 5449 5442 5433 5423 5415 5411 5405 5399 5396 5392 5389 5388 5386 5384 5381 5379 5378 5379
5567 5559 5554 5546 5538 5532 5528 5525 5523 5520 5516 5513 5511 5508 5505 5505 5504 5500 5494 5488 5482 5476 5470 5461 5453 5443 5433 5425 5419 5412 5407 5401 5396 5391 5386 5385 5383 5381 5379 5377 5374 5373 5375
5563 5556 5551 5542 5535 5528 5526 5523 5520 5517 5514 5511 5509 5508 5505 5504 5505 5501 5494 5486 5476 5472 5466 5457 5448 5439 5431 5426 5418 5411 5403 5397 5390 5387 5383 5381 5380 5378 5377 5375 5372 5373 5374
5561 5554 5545 5538 5531 5528 5524 5520 5518 5515 5511 5508 5507 5508 5506 5504 5503 5500 5492 5482 5475 5466 5458 5451 5444 5436 5429 5425 5418 5407 5402 5395 5387 5380 5375 5377 5377 5376 5375 5375 5374 5373 5374
5557 5549 5541 5534 5529 5526 5520 5518 5515 5511 5507 5507 5505 5504 5504 5504 5499 5495 5488 5477 5468 5460 5453 5447 5439 5433 5427 5422 5414 5410 5402 5392 5383 5378 5377 5376 5376 5376 5376 5377 5377 5377 5377
5552 5542 5536 5532 5526 5523 5517 5515 5510 5508 5505 5506 5503 5501 5499 5497 5492 5488 5482 5474 5466 5456 5449 5442 5435 5428 5423 5419 5414 5406 5396 5388 5383 5384 5380 5379 5378 5378 5378 5380 5381 5381 5383
5545 5536 5531 5527 5523 5519 5515 5513 5509 5507 5506 5507 5504 5501 5496 5491 5486 5481 5474 5466 5459 5452 5443 5435 5429 5422 5418 5413 5408 5400 5393 5387 5386 5385 5382 5381 5381 5381 5381 5382 5383 5385 5387
5541 5534 5528 5523 5520 5517 5515 5513 5511 5513 5512 5510 5508 5503 5495 5489 5483 5476 5468 5462 5453 5445 5435 5429 5420 5412 5408 5405 5400 5395 5391 5388 5387 5385 5384 5384 5384 5384 5385 5386 5387 5390 5391
5536 5529 5525 5520 5516 5514 5511 5511 5515 5512 5516 5512 5510 5505 5496 5486 5478 5471 5462 5456 5448 5439 5430 5419 5411 5405 5403 5399 5396 5393 5393 5390 5387 5386 5386 5386 5387 5387 5388 5390 5392 5394 5396
5530 5525 5522 5519 5514 5510 5509 5507 5507 5506 5509 5508 5503 5496 5488 5481 5472 5465 5459 5450 5441 5434 5422 5411 5404 5400 5398 5396 5395 5393 5394 5390 5389 5388 5388 5389 5389 5391 5391 5394 5396 5398 5401
5530 5526 5521 5516 5512 5510 5510 5510 5510 5505 5504 5500 5495 5487 5480 5473 5466 5459 5451 5443 5432 5424 5414 5406 5398 5396 5396 5397 5396 5396 5393 5390 5390 5389 5390 5392 5393 5394 5395 5398 5400 5402 5405
5527 5522 5520 5515 5513 5510 5510 5509 5506 5502 5496 5490 5484 5477 5471 5465 5458 5450 5443 5433 5423 5416 5407 5399 5394 5394 5396 5397 5396 5394 5391 5390 5390 5391 5393 5394 5396 5396 5398 5400 5402 5404 5405
5523 5520 5516 5511 5511 5507 5506 5501 5497 5492 5486 5479 5473 5466 5460 5454 5446 5439 5433 5425 5417 5409 5400 5394 5391 5391 5393 5392 5392 5391 5390 5390 5392 5393 5394 5396 5398 5398 5400 5403 5406 5408 5410
5519 5515 5512 5509 5505 5504 5497 5493 5488 5483 5476 5469 5462 5456 5449 5444 5436 5430 5424 5417 5410 5402 5395 5390 5387 5388 5389 5389 5390 5390 5390 5391 5392 5393 5394 5397 5399 5401 5403 5405 5408 5411 5412
5516 5512 5510 5507 5503 5497 5491 5487 5483 5476 5470 5463 5455 5449 5443 5438 5431 5425 5419 5413 5406 5400 5393 5388 5385 5387 5387 5387 5388 5389 5389 5391 5393 5392 5393 5396 5398 5402 5405 5408 5411 5412 5413
5513 5510 5510 5506 5497 5489 5484 5481 5476 5470 5463 5456 5450 5443 5437 5432 5426 5420 5415 5409 5403 5395 5388 5384 5382 5384 5385 5385 5386 5386 5387 5389 5390 5391 5394 5398 5401 5403 5406 5408 5412 5415 5416
5511 5510 5502 5496 5489 5483 5478 5473 5468 5465 5458 5450 5443 5437 5432 5428 5423 5417 5410 5403 5396 5389 5384 5381 5380 5381 5382 5384 5385 5386 5387 5390 5392 5395 5396 5400 5403 5406 5408 5411 5415 5417 5418
5507 5502 5499 5491 5484 5477 5472 5467 5463 5458 5451 5445 5438 5433 5428 5423 5416 5410 5404 5397 5390 5384 5380 5378 5379 5380 5380 5382 5384 5387 5391 5394 5396 5398 5402 5404 5408 5411 5413 5415 5419 5421 5421
5501 5495 5488 5482 5476 5472 5467 5461 5456 5451 5444 5438 5433 5428 5423 5417 5410 5404 5398 5391 5384 5379 5376 5375 5377 5379 5380 5381 5384 5388 5391 5395 5399 5402 5405 5408 5411 5414 5415 5417 5421 5421 5421